| time (UTC) | temp F | wind direction | speed knots | gust knots | rain 1hr in | rain 24hr in | rain mn in | humidity % | barometer mb |
| 20260503203101 | 55 | 281 | 5.2 | 13.9 | 0.00 | 0.00 | 0.00 | 39 | 1012.3 |
| 20260503201600 | 56 | 294 | 3.5 | 12.2 | 0.00 | 0.00 | 0.00 | 37 | 1012.3 |
| 20260503200054 | 56 | 345 | 5.2 | 13.9 | 0.00 | 0.00 | 0.00 | 36 | 1012.2 |
| 20260503194655 | 56 | 271 | 6.1 | 11.3 | 0.00 | 0.00 | 0.00 | 34 | 1012.4 |
| 20260503193051 | 56 | 285 | 5.2 | 10.4 | 0.00 | 0.00 | 0.00 | 34 | 1012.5 |
| 20260503191551 | 56 | 290 | 3.5 | 9.6 | 0.00 | 0.00 | 0.00 | 33 | 1012.5 |
| 20260503190053 | 57 | 178 | 2.6 | 13.0 | 0.00 | 0.00 | 0.00 | 33 | 1012.6 |
| 20260503184603 | 56 | 311 | 2.6 | 13.9 | 0.00 | 0.00 | 0.00 | 34 | 1012.8 |
| 20260503183049 | 55 | 263 | 2.6 | 10.4 | 0.00 | 0.00 | 0.00 | 33 | 1013.0 |
| 20260503181546 | 56 | 289 | 3.5 | 9.6 | 0.00 | 0.00 | 0.00 | 33 | 1013.3 |
| 20260503180040 | 55 | 285 | 7.0 | 11.3 | 0.00 | 0.00 | 0.00 | 33 | 1013.5 |
| 20260503174534 | 53 | 349 | 4.3 | 11.3 | 0.00 | 0.00 | 0.00 | 38 | 1013.7 |
| 20260503173035 | 52 | 51 | 1.7 | 13.0 | 0.00 | 0.00 | 0.00 | 37 | 1014.0 |
| 20260503171540 | 52 | 176 | 3.5 | 13.9 | 0.00 | 0.00 | 0.00 | 36 | 1014.1 |
| 20260503081534 | 35 | 351 | 0.0 | 0.0 | 0.00 | 0.00 | 0.00 | 79 | 1014.6 |
| 20260503071538 | 34 | 351 | 0.0 | 0.0 | 0.00 | 0.00 | 0.00 | 77 | 1014.4 |
| 20260503054522 | 37 | 351 | 0.0 | 0.9 | 0.00 | 0.00 | 0.00 | 74 | 1014.7 |
| 20260503053014 | 37 | 351 | 0.0 | 0.9 | 0.00 | 0.00 | 0.00 | 74 | 1014.9 |
| 20260503051511 | 37 | 351 | 0.0 | 0.9 | 0.00 | 0.00 | 0.00 | 73 | 1015.0 |
| 20260503050010 | 37 | 351 | 0.0 | 0.0 | 0.00 | 0.00 | 0.00 | 73 | 1015.3 |
| 20260503044509 | 37 | 351 | 0.0 | 0.0 | 0.00 | 0.03 | 0.00 | 72 | 1015.4 |
| 20260503043005 | 38 | 351 | 0.0 | 0.0 | 0.00 | 0.03 | 0.00 | 70 | 1015.5 |
| 20260503041502 | 38 | 351 | 0.0 | 0.0 | 0.00 | 0.03 | 0.00 | 70 | 1015.6 |
| 20260503040059 | 39 | 351 | 0.0 | 0.0 | 0.00 | 0.03 | 0.00 | 69 | 1015.6 |
| 20260503034557 | 40 | 351 | 0.0 | 0.0 | 0.00 | 0.03 | 0.03 | 68 | 1015.6 |
| 20260503033057 | 41 | 351 | 0.0 | 0.0 | 0.00 | 0.03 | 0.03 | 67 | 1015.5 |
| 20260503031556 | 41 | 351 | 0.0 | 0.0 | 0.00 | 0.03 | 0.03 | 66 | 1015.4 |
| 20260503030100 | 42 | 351 | 0.0 | 0.9 | 0.00 | 0.03 | 0.03 | 65 | 1015.5 |
| 20260503024555 | 43 | 351 | 0.0 | 1.7 | 0.00 | 0.04 | 0.03 | 62 | 1015.5 |
| 20260503023105 | 43 | 351 | 0.9 | 2.6 | 0.00 | 0.04 | 0.03 | 61 | 1015.5 |
| 20260503021558 | 43 | 5 | 0.9 | 2.6 | 0.00 | 0.04 | 0.03 | 61 | 1015.5 |
| 20260503020058 | 44 | 5 | 0.9 | 3.5 | 0.00 | 0.04 | 0.03 | 60 | 1015.6 |
| 20260503014553 | 44 | 5 | 0.9 | 2.6 | 0.00 | 0.07 | 0.03 | 59 | 1015.5 |
| 20260503013056 | 44 | 5 | 0.9 | 2.6 | 0.00 | 0.07 | 0.03 | 57 | 1015.4 |
| 20260503011614 | 45 | 5 | 0.0 | 3.5 | 0.00 | 0.07 | 0.03 | 56 | 1015.3 |
| 20260503010056 | 45 | 5 | 0.0 | 2.6 | 0.00 | 0.07 | 0.03 | 55 | 1015.2 |
| 20260503004552 | 45 | 5 | 0.9 | 7.0 | 0.00 | 0.09 | 0.03 | 54 | 1015.0 |
| 20260503003052 | 45 | 360 | 0.9 | 4.3 | 0.00 | 0.09 | 0.03 | 53 | 1014.9 |
| 20260503001551 | 46 | 360 | 1.7 | 5.2 | 0.00 | 0.09 | 0.03 | 53 | 1014.8 |
| 20260502234600 | 46 | 281 | 1.7 | 4.3 | 0.00 | 0.14 | 0.03 | 51 | 1014.7 |
| 20260502233048 | 47 | 277 | 1.7 | 6.1 | 0.00 | 0.14 | 0.03 | 52 | 1014.5 |
| 20260502231548 | 47 | 276 | 0.9 | 2.6 | 0.00 | 0.14 | 0.03 | 53 | 1014.4 |
| 20260502230048 | 47 | 275 | 0.9 | 3.5 | 0.00 | 0.14 | 0.03 | 53 | 1014.5 |
| 20260502224549 | 47 | 275 | 1.7 | 7.8 | 0.00 | 0.15 | 0.03 | 54 | 1014.4 |
| 20260502223047 | 47 | 272 | 0.0 | 5.2 | 0.00 | 0.15 | 0.03 | 53 | 1014.3 |
| 20260502221549 | 48 | 269 | 0.9 | 7.0 | 0.00 | 0.15 | 0.03 | 53 | 1014.2 |
| 20260502220057 | 47 | 210 | 0.9 | 8.7 | 0.00 | 0.15 | 0.03 | 51 | 1014.3 |
| 20260502214545 | 48 | 213 | 1.7 | 5.2 | 0.00 | 0.15 | 0.03 | 50 | 1014.2 |
| 20260502213045 | 48 | 285 | 2.6 | 8.7 | 0.00 | 0.15 | 0.03 | 49 | 1014.1 |
| 20260502211544 | 48 | 275 | 1.7 | 6.1 | 0.00 | 0.15 | 0.03 | 49 | 1014.0 |
| 20260502210048 | 49 | 277 | 2.6 | 7.8 | 0.00 | 0.15 | 0.03 | 46 | 1013.9 |
| 20260502204544 | 49 | 282 | 2.6 | 7.8 | 0.00 | 0.15 | 0.03 | 46 | 1013.9 |